COSMOS 1975

Last updated on Mon Sep 21 2026 00:02:08 GMT+0000 (Coordinated Universal Time)

1 19573U 88093A 26263.45216947 .00004462 00000+0 15060-3 0 9990 2 19573 82.5160 281.8029 0010634 192.2237 167.8747 15.30367111 49178
UTC large
Height (km)
Speed (km/s)
/
Latitude / Longitude
Inclination (degrees)
Orbital Period (minutes)
Azimuth
Elevation
Range (km)
Doppler Factor

Next 0 passes for location: London (51.5072 / 0.1276)

No passes found over London.
COSMOS 1975